| time (UTC) | temp F | wind direction | speed MPH | gust MPH | rain 1hr in | rain 24hr in | rain mn in | humidity % | barometer mb |
| 20260903001036 | 66 | 209 | 5.0 | 17.0 | 0.00 | 0.01 | 0.00 | 86 | 1018.6 |
| 20260903000536 | 66 | 286 | 7.0 | 17.0 | 0.00 | 0.01 | 0.00 | 86 | 1018.8 |
| 20260903000100 | 66 | 259 | 7.0 | 17.0 | 0.00 | 0.01 | 0.00 | 86 | 1018.8 |
| 20260902235533 | 66 | 236 | 6.0 | 17.0 | 0.00 | 0.01 | 0.00 | 86 | 1018.6 |
| 20260902235033 | 66 | 227 | 6.0 | 16.0 | 0.00 | 0.01 | 0.00 | 86 | 1018.4 |
| 20260902234556 | 66 | 261 | 6.0 | 15.0 | 0.00 | 0.01 | 0.00 | 86 | 1018.4 |
| 20260902234037 | 66 | 246 | 6.0 | 12.0 | 0.00 | 0.01 | 0.00 | 86 | 1018.3 |
| 20260902233536 | 66 | 218 | 7.0 | 13.0 | 0.00 | 0.01 | 0.00 | 86 | 1018.3 |
| 20260902233059 | 66 | 254 | 7.0 | 15.0 | 0.00 | 0.01 | 0.00 | 86 | 1018.2 |
| 20260902232536 | 66 | 197 | 8.0 | 15.0 | 0.00 | 0.01 | 0.00 | 86 | 1018.1 |
| 20260902232034 | 66 | 214 | 8.0 | 14.0 | 0.00 | 0.01 | 0.00 | 86 | 1018.2 |
| 20260902231610 | 66 | 262 | 4.0 | 15.0 | 0.00 | 0.01 | 0.00 | 86 | 1018.4 |
| 20260902231036 | 66 | 240 | 4.0 | 15.0 | 0.00 | 0.01 | 0.00 | 86 | 1018.5 |
| 20260902230535 | 66 | 227 | 7.0 | 15.0 | 0.00 | 0.01 | 0.00 | 86 | 1018.5 |
| 20260902230057 | 66 | 208 | 6.0 | 17.0 | 0.00 | 0.01 | 0.00 | 86 | 1018.5 |
| 20260902225536 | 66 | 231 | 7.0 | 17.0 | 0.00 | 0.01 | 0.01 | 86 | 1018.5 |
| 20260902225035 | 66 | 290 | 7.0 | 17.0 | 0.00 | 0.01 | 0.01 | 86 | 1018.6 |
| 20260902224604 | 66 | 238 | 4.0 | 11.0 | 0.00 | 0.01 | 0.01 | 86 | 1018.7 |
| 20260902224036 | 66 | 221 | 5.0 | 11.0 | 0.00 | 0.01 | 0.01 | 86 | 1018.8 |
| 20260902223535 | 66 | 264 | 5.0 | 10.0 | 0.00 | 0.01 | 0.01 | 86 | 1018.8 |
| 20260902223106 | 66 | 240 | 4.0 | 12.0 | 0.00 | 0.01 | 0.01 | 86 | 1018.8 |
| 20260902222538 | 66 | 199 | 5.0 | 12.0 | 0.00 | 0.01 | 0.01 | 86 | 1018.8 |
| 20260902222036 | 66 | 276 | 6.0 | 10.0 | 0.00 | 0.01 | 0.01 | 86 | 1018.7 |
| 20260902221627 | 66 | 184 | 4.0 | 10.0 | 0.00 | 0.01 | 0.01 | 86 | 1018.6 |
| 20260902221034 | 66 | 229 | 5.0 | 10.0 | 0.00 | 0.01 | 0.01 | 86 | 1018.6 |
| 20260902220536 | 66 | 192 | 4.0 | 12.0 | 0.00 | 0.01 | 0.01 | 86 | 1018.6 |
| 20260902220104 | 66 | 205 | 6.0 | 12.0 | 0.00 | 0.01 | 0.01 | 86 | 1018.6 |
| 20260902215535 | 66 | 211 | 4.0 | 13.0 | 0.00 | 0.01 | 0.01 | 86 | 1018.7 |
| 20260902215035 | 66 | 210 | 5.0 | 13.0 | 0.00 | 0.01 | 0.01 | 87 | 1018.7 |
| 20260902214601 | 66 | 244 | 6.0 | 14.0 | 0.00 | 0.01 | 0.01 | 87 | 1018.7 |
| 20260902214036 | 66 | 212 | 5.0 | 14.0 | 0.00 | 0.01 | 0.01 | 87 | 1018.5 |
| 20260902213539 | 66 | 214 | 6.0 | 14.0 | 0.00 | 0.01 | 0.01 | 87 | 1018.4 |
| 20260902213107 | 66 | 249 | 4.0 | 14.0 | 0.00 | 0.01 | 0.01 | 86 | 1018.3 |
| 20260902212539 | 66 | 246 | 5.0 | 14.0 | 0.00 | 0.01 | 0.01 | 86 | 1018.2 |
| 20260902212038 | 66 | 266 | 5.0 | 13.0 | 0.00 | 0.01 | 0.01 | 86 | 1018.2 |
| 20260902211603 | 66 | 205 | 6.0 | 13.0 | 0.00 | 0.01 | 0.01 | 86 | 1018.3 |
| 20260902211039 | 66 | 232 | 4.0 | 12.0 | 0.00 | 0.01 | 0.01 | 86 | 1018.2 |
| 20260902210541 | 66 | 202 | 4.0 | 13.0 | 0.00 | 0.01 | 0.01 | 86 | 1018.2 |
| 20260902205538 | 66 | 225 | 4.0 | 10.0 | 0.00 | 0.01 | 0.01 | 86 | 1018.3 |
| 20260902205037 | 66 | 207 | 4.0 | 10.0 | 0.00 | 0.01 | 0.01 | 86 | 1018.3 |
| 20260902204557 | 66 | 252 | 3.0 | 15.0 | 0.00 | 0.01 | 0.01 | 86 | 1018.5 |
| 20260902204037 | 66 | 228 | 5.0 | 15.0 | 0.00 | 0.01 | 0.01 | 86 | 1018.6 |
| 20260902203535 | 66 | 265 | 4.0 | 11.0 | 0.00 | 0.01 | 0.01 | 86 | 1018.7 |
| 20260902203055 | 66 | 291 | 5.0 | 14.0 | 0.00 | 0.01 | 0.01 | 86 | 1018.7 |
| 20260902202536 | 66 | 264 | 5.0 | 14.0 | 0.00 | 0.01 | 0.01 | 86 | 1018.5 |
| 20260902202036 | 66 | 238 | 5.0 | 15.0 | 0.00 | 0.01 | 0.01 | 86 | 1018.4 |
| 20260902201609 | 66 | 256 | 8.0 | 16.0 | 0.00 | 0.01 | 0.01 | 86 | 1018.3 |
| 20260902201033 | 66 | 250 | 4.0 | 16.0 | 0.00 | 0.01 | 0.01 | 86 | 1018.3 |
| 20260902200536 | 66 | 216 | 4.0 | 13.0 | 0.00 | 0.01 | 0.01 | 86 | 1018.4 |
| 20260902200100 | 66 | 254 | 6.0 | 13.0 | 0.00 | 0.01 | 0.01 | 86 | 1018.3 |
| 20260902195533 | 66 | 248 | 4.0 | 15.0 | 0.00 | 0.01 | 0.01 | 86 | 1018.3 |
| 20260902195033 | 66 | 228 | 6.0 | 15.0 | 0.00 | 0.01 | 0.01 | 86 | 1018.3 |
| 20260902194555 | 66 | 240 | 7.0 | 14.0 | 0.00 | 0.01 | 0.01 | 86 | 1018.2 |
| 20260902194033 | 66 | 276 | 6.0 | 16.0 | 0.00 | 0.01 | 0.01 | 86 | 1018.2 |
| 20260902193535 | 66 | 215 | 9.0 | 16.0 | 0.00 | 0.01 | 0.01 | 86 | 1018.1 |
| 20260902193108 | 66 | 230 | 7.0 | 18.0 | 0.00 | 0.01 | 0.01 | 86 | 1017.9 |
| 20260902192537 | 66 | 261 | 6.0 | 18.0 | 0.00 | 0.01 | 0.01 | 86 | 1017.9 |
| 20260902192036 | 66 | 225 | 8.0 | 18.0 | 0.00 | 0.01 | 0.01 | 86 | 1018.1 |
| 20260902191631 | 66 | 255 | 7.0 | 16.0 | 0.00 | 0.01 | 0.01 | 86 | 1018.2 |
| 20260902191033 | 66 | 250 | 8.0 | 19.0 | 0.00 | 0.01 | 0.01 | 86 | 1018.1 |
| 20260902190533 | 66 | 212 | 7.0 | 19.0 | 0.00 | 0.01 | 0.01 | 86 | 1018.0 |
| 20260902190101 | 66 | 218 | 8.0 | 18.0 | 0.00 | 0.01 | 0.01 | 86 | 1017.8 |
| 20260902185535 | 66 | 204 | 7.0 | 18.0 | 0.00 | 0.01 | 0.01 | 86 | 1017.8 |
| 20260902185037 | 66 | 217 | 6.0 | 19.0 | 0.00 | 0.01 | 0.01 | 87 | 1017.7 |
| 20260902184559 | 66 | 157 | 6.0 | 19.0 | 0.00 | 0.01 | 0.01 | 87 | 1017.7 |
| 20260902184033 | 66 | 219 | 8.0 | 18.0 | 0.00 | 0.01 | 0.01 | 87 | 1017.8 |
| 20260902183533 | 66 | 252 | 7.0 | 18.0 | 0.00 | 0.01 | 0.01 | 87 | 1017.5 |
| 20260902183129 | 66 | 271 | 7.0 | 18.0 | 0.00 | 0.01 | 0.01 | 87 | 1017.7 |
| 20260902182533 | 66 | 219 | 8.0 | 17.0 | 0.00 | 0.01 | 0.01 | 87 | 1017.7 |
| 20260902182036 | 66 | 251 | 7.0 | 17.0 | 0.00 | 0.01 | 0.01 | 87 | 1017.7 |
| 20260902181612 | 66 | 227 | 7.0 | 18.0 | 0.00 | 0.01 | 0.01 | 87 | 1017.6 |
| 20260902181035 | 66 | 281 | 7.0 | 18.0 | 0.00 | 0.01 | 0.01 | 87 | 1017.8 |
| 20260902180533 | 66 | 224 | 8.0 | 18.0 | 0.00 | 0.01 | 0.01 | 87 | 1017.7 |
| 20260902175533 | 66 | 245 | 9.0 | 18.0 | 0.00 | 0.01 | 0.01 | 88 | 1017.8 |
| 20260902175034 | 66 | 217 | 6.0 | 17.0 | 0.00 | 0.01 | 0.01 | 88 | 1017.9 |
| 20260902174611 | 66 | 246 | 6.0 | 19.0 | 0.00 | 0.01 | 0.01 | 88 | 1017.7 |
| 20260902174036 | 66 | 252 | 7.0 | 19.0 | 0.00 | 0.01 | 0.01 | 88 | 1017.8 |
| 20260902173535 | 66 | 205 | 8.0 | 19.0 | 0.00 | 0.01 | 0.01 | 88 | 1017.7 |
| 20260902173112 | 66 | 256 | 9.0 | 18.0 | 0.00 | 0.01 | 0.01 | 88 | 1017.8 |
| 20260902172533 | 66 | 220 | 10.0 | 18.0 | 0.00 | 0.01 | 0.01 | 89 | 1017.7 |
| 20260902172034 | 66 | 247 | 8.0 | 17.0 | 0.00 | 0.01 | 0.01 | 88 | 1017.8 |
| 20260902171614 | 66 | 205 | 9.0 | 16.0 | 0.00 | 0.01 | 0.01 | 89 | 1017.9 |
| 20260902171033 | 66 | 201 | 8.0 | 18.0 | 0.00 | 0.01 | 0.01 | 89 | 1018.0 |
| 20260902170533 | 66 | 221 | 11.0 | 18.0 | 0.00 | 0.01 | 0.01 | 89 | 1018.0 |
| 20260902170058 | 66 | 257 | 8.0 | 18.0 | 0.00 | 0.01 | 0.01 | 89 | 1017.9 |
| 20260902165536 | 66 | 227 | 9.0 | 18.0 | 0.00 | 0.01 | 0.01 | 89 | 1017.8 |
| 20260902165035 | 66 | 263 | 8.0 | 19.0 | 0.00 | 0.01 | 0.01 | 89 | 1017.8 |
| 20260902164606 | 66 | 229 | 9.0 | 19.0 | 0.00 | 0.01 | 0.01 | 89 | 1017.9 |
| 20260902164036 | 66 | 167 | 10.0 | 18.0 | 0.00 | 0.01 | 0.01 | 88 | 1018.0 |
| 20260902163534 | 66 | 256 | 8.0 | 18.0 | 0.00 | 0.01 | 0.01 | 88 | 1017.9 |
| 20260902163103 | 66 | 182 | 7.0 | 17.0 | 0.00 | 0.01 | 0.01 | 88 | 1017.9 |
| 20260902162533 | 66 | 203 | 9.0 | 17.0 | 0.00 | 0.01 | 0.01 | 88 | 1018.1 |
| 20260902162033 | 66 | 233 | 8.0 | 21.0 | 0.00 | 0.01 | 0.01 | 88 | 1018.0 |
| 20260902161602 | 66 | 219 | 8.0 | 21.0 | 0.00 | 0.01 | 0.01 | 88 | 1018.0 |
| 20260902161034 | 66 | 179 | 7.0 | 18.0 | 0.00 | 0.01 | 0.01 | 88 | 1017.9 |
| 20260902160534 | 66 | 212 | 9.0 | 19.0 | 0.00 | 0.01 | 0.01 | 88 | 1018.1 |
| 20260902155534 | 66 | 213 | 8.0 | 15.0 | 0.00 | 0.01 | 0.01 | 88 | 1018.2 |
| 20260902155033 | 66 | 206 | 6.0 | 17.0 | 0.00 | 0.01 | 0.01 | 88 | 1018.3 |
| 20260902154552 | 66 | 290 | 9.0 | 19.0 | 0.00 | 0.01 | 0.01 | 88 | 1018.3 |
| 20260902154033 | 65 | 240 | 7.0 | 19.0 | 0.00 | 0.01 | 0.01 | 88 | 1018.3 |
| 20260902153534 | 65 | 202 | 8.0 | 16.0 | 0.00 | 0.01 | 0.01 | 88 | 1018.3 |
| 20260902153057 | 66 | 258 | 6.0 | 18.0 | 0.00 | 0.01 | 0.01 | 88 | 1018.3 |
| 20260902152534 | 65 | 219 | 7.0 | 18.0 | 0.00 | 0.01 | 0.01 | 88 | 1018.4 |
| 20260902152033 | 66 | 232 | 8.0 | 16.0 | 0.00 | 0.01 | 0.01 | 88 | 1018.4 |
| 20260902151556 | 65 | 226 | 7.0 | 17.0 | 0.00 | 0.01 | 0.01 | 88 | 1018.5 |
| 20260902151038 | 65 | 265 | 7.0 | 17.0 | 0.00 | 0.01 | 0.01 | 88 | 1018.3 |
| 20260902150538 | 65 | 256 | 8.0 | 17.0 | 0.00 | 0.01 | 0.01 | 88 | 1018.5 |
| 20260902150105 | 65 | 229 | 5.0 | 18.0 | 0.00 | 0.01 | 0.01 | 88 | 1018.6 |
| 20260902145538 | 65 | 213 | 9.0 | 21.0 | 0.00 | 0.01 | 0.01 | 88 | 1018.7 |
| 20260902145037 | 65 | 257 | 11.0 | 21.0 | 0.00 | 0.01 | 0.01 | 88 | 1018.7 |
| 20260902144558 | 65 | 243 | 11.0 | 23.0 | 0.00 | 0.01 | 0.01 | 88 | 1018.6 |
| 20260902144039 | 65 | 243 | 9.0 | 23.0 | 0.00 | 0.01 | 0.01 | 88 | 1018.7 |
| 20260902143538 | 65 | 262 | 9.0 | 23.0 | 0.00 | 0.01 | 0.01 | 88 | 1018.7 |
| 20260902143059 | 65 | 206 | 7.0 | 20.0 | 0.00 | 0.01 | 0.01 | 89 | 1018.7 |
| 20260902142538 | 65 | 227 | 8.0 | 23.0 | 0.00 | 0.01 | 0.01 | 89 | 1018.7 |
| 20260902142038 | 65 | 219 | 11.0 | 23.0 | 0.00 | 0.01 | 0.01 | 88 | 1018.7 |
| 20260902141558 | 65 | 238 | 8.0 | 18.0 | 0.00 | 0.01 | 0.01 | 88 | 1018.8 |
| 20260902141040 | 65 | 219 | 7.0 | 22.0 | 0.01 | 0.01 | 0.01 | 88 | 1018.9 |
| 20260902140537 | 64 | 208 | 9.0 | 22.0 | 0.01 | 0.01 | 0.01 | 88 | 1019.1 |
| 20260902140106 | 64 | 227 | 11.0 | 22.0 | 0.01 | 0.01 | 0.01 | 88 | 1019.0 |
| 20260902135538 | 65 | 267 | 6.0 | 16.0 | 0.01 | 0.01 | 0.01 | 88 | 1019.2 |
| 20260902135038 | 64 | 209 | 7.0 | 16.0 | 0.00 | 0.00 | 0.00 | 88 | 1019.1 |
| 20260902134606 | 64 | 195 | 6.0 | 15.0 | 0.00 | 0.00 | 0.00 | 88 | 1019.0 |
| 20260902134037 | 64 | 202 | 6.0 | 15.0 | 0.00 | 0.00 | 0.00 | 88 | 1019.0 |
| 20260902133538 | 64 | 227 | 7.0 | 15.0 | 0.00 | 0.00 | 0.00 | 88 | 1019.1 |
| 20260902133056 | 65 | 218 | 6.0 | 13.0 | 0.00 | 0.00 | 0.00 | 87 | 1019.1 |
| 20260902132538 | 65 | 229 | 5.0 | 13.0 | 0.00 | 0.00 | 0.00 | 87 | 1019.1 |
| 20260902132041 | 65 | 151 | 5.0 | 18.0 | 0.00 | 0.00 | 0.00 | 87 | 1019.1 |
| 20260902131557 | 65 | 230 | 3.0 | 20.0 | 0.00 | 0.00 | 0.00 | 87 | 1019.2 |
| 20260902131038 | 65 | 233 | 9.0 | 20.0 | 0.00 | 0.00 | 0.00 | 86 | 1019.2 |
| 20260902130537 | 65 | 223 | 8.0 | 19.0 | 0.00 | 0.00 | 0.00 | 86 | 1019.3 |
| 20260902125541 | 65 | 204 | 7.0 | 22.0 | 0.00 | 0.00 | 0.00 | 85 | 1019.4 |
| 20260902125038 | 65 | 200 | 7.0 | 19.0 | 0.00 | 0.00 | 0.00 | 84 | 1019.4 |
| 20260902124601 | 66 | 151 | 12.0 | 18.0 | 0.00 | 0.00 | 0.00 | 83 | 1019.5 |
| 20260902124038 | 66 | 176 | 8.0 | 15.0 | 0.00 | 0.00 | 0.00 | 81 | 1019.5 |
| 20260902123537 | 67 | 224 | 6.0 | 14.0 | 0.00 | 0.00 | 0.00 | 80 | 1019.4 |
| 20260902123101 | 67 | 205 | 5.0 | 15.0 | 0.00 | 0.00 | 0.00 | 78 | 1019.5 |
| 20260902122537 | 68 | 216 | 6.0 | 15.0 | 0.00 | 0.00 | 0.00 | 76 | 1019.5 |
| 20260902122042 | 68 | 223 | 7.0 | 20.0 | 0.00 | 0.00 | 0.00 | 76 | 1019.6 |
| 20260902121557 | 68 | 228 | 10.0 | 20.0 | 0.00 | 0.00 | 0.00 | 75 | 1019.5 |
| 20260902121037 | 68 | 231 | 10.0 | 22.0 | 0.00 | 0.00 | 0.00 | 74 | 1019.6 |
| 20260902120539 | 68 | 223 | 13.0 | 22.0 | 0.00 | 0.00 | 0.00 | 74 | 1019.6 |
| 20260902120109 | 68 | 231 | 9.0 | 22.0 | 0.00 | 0.00 | 0.00 | 74 | 1019.6 |
| 20260902115539 | 68 | 252 | 7.0 | 22.0 | 0.00 | 0.00 | 0.00 | 74 | 1019.7 |
| 20260902115038 | 68 | 173 | 10.0 | 24.0 | 0.00 | 0.00 | 0.00 | 74 | 1019.8 |
| 20260902114600 | 67 | 319 | 14.0 | 24.0 | 0.00 | 0.00 | 0.00 | 74 | 1019.6 |
| 20260902114037 | 67 | 198 | 11.0 | 22.0 | 0.00 | 0.00 | 0.00 | 75 | 1019.7 |
| 20260902113538 | 67 | 230 | 12.0 | 22.0 | 0.00 | 0.00 | 0.00 | 75 | 1019.8 |
| 20260902113104 | 67 | 214 | 11.0 | 21.0 | 0.00 | 0.00 | 0.00 | 75 | 1019.9 |
| 20260902112538 | 67 | 280 | 8.0 | 20.0 | 0.00 | 0.00 | 0.00 | 75 | 1019.9 |
| 20260902112038 | 67 | 212 | 9.0 | 20.0 | 0.00 | 0.00 | 0.00 | 75 | 1019.9 |
| 20260902111607 | 67 | 212 | 9.0 | 22.0 | 0.00 | 0.00 | 0.00 | 74 | 1020.0 |
| 20260902111039 | 67 | 200 | 9.0 | 22.0 | 0.00 | 0.00 | 0.00 | 75 | 1019.8 |
| 20260902110541 | 67 | 206 | 8.0 | 21.0 | 0.00 | 0.00 | 0.00 | 74 | 1019.8 |
| 20260902105540 | 67 | 215 | 6.0 | 20.0 | 0.00 | 0.00 | 0.00 | 75 | 1019.9 |
| 20260902105038 | 67 | 218 | 11.0 | 20.0 | 0.00 | 0.00 | 0.00 | 75 | 1020.0 |
| 20260902104611 | 67 | 204 | 7.0 | 20.0 | 0.00 | 0.00 | 0.00 | 75 | 1020.1 |
| 20260902104038 | 67 | 259 | 10.0 | 20.0 | 0.00 | 0.00 | 0.00 | 75 | 1020.0 |
| 20260902103538 | 67 | 175 | 10.0 | 20.0 | 0.00 | 0.00 | 0.00 | 75 | 1020.0 |
| 20260902103106 | 67 | 163 | 10.0 | 16.0 | 0.00 | 0.00 | 0.00 | 75 | 1020.1 |
| 20260902102538 | 67 | 250 | 7.0 | 15.0 | 0.00 | 0.00 | 0.00 | 76 | 1020.1 |
| 20260902102038 | 67 | 201 | 6.0 | 17.0 | 0.00 | 0.00 | 0.00 | 76 | 1020.1 |
| 20260902101558 | 67 | 215 | 8.0 | 17.0 | 0.00 | 0.00 | 0.00 | 76 | 1020.0 |
| 20260902101038 | 67 | 203 | 8.0 | 21.0 | 0.00 | 0.00 | 0.00 | 75 | 1020.2 |
| 20260902100538 | 67 | 232 | 7.0 | 21.0 | 0.00 | 0.00 | 0.00 | 75 | 1020.1 |
| 20260902100101 | 67 | 259 | 7.0 | 17.0 | 0.00 | 0.00 | 0.00 | 76 | 1020.2 |
| 20260902095538 | 66 | 236 | 8.0 | 18.0 | 0.00 | 0.00 | 0.00 | 75 | 1020.2 |
| 20260902095038 | 66 | 194 | 7.0 | 18.0 | 0.00 | 0.00 | 0.00 | 76 | 1020.2 |
| 20260902094600 | 66 | 214 | 9.0 | 16.0 | 0.00 | 0.00 | 0.00 | 75 | 1020.3 |
| 20260902094038 | 67 | 212 | 8.0 | 15.0 | 0.00 | 0.00 | 0.00 | 75 | 1020.3 |
| 20260902093539 | 67 | 235 | 6.0 | 14.0 | 0.00 | 0.00 | 0.00 | 75 | 1020.2 |
| 20260902093107 | 66 | 228 | 7.0 | 15.0 | 0.00 | 0.00 | 0.00 | 75 | 1020.3 |
| 20260902092541 | 66 | 227 | 7.0 | 16.0 | 0.00 | 0.00 | 0.00 | 75 | 1020.1 |
| 20260902092038 | 66 | 227 | 8.0 | 16.0 | 0.00 | 0.00 | 0.00 | 76 | 1020.2 |
| 20260902091557 | 66 | 215 | 7.0 | 16.0 | 0.00 | 0.00 | 0.00 | 76 | 1020.2 |
| 20260902091037 | 66 | 213 | 5.0 | 15.0 | 0.00 | 0.00 | 0.00 | 76 | 1020.2 |
| 20260902090540 | 66 | 275 | 10.0 | 15.0 | 0.00 | 0.00 | 0.00 | 75 | 1020.1 |
| 20260902090116 | 66 | 213 | 6.0 | 18.0 | 0.00 | 0.00 | 0.00 | 76 | 1020.1 |
| 20260902085533 | 66 | 197 | 9.0 | 18.0 | 0.00 | 0.00 | 0.00 | 76 | 1020.2 |
| 20260902085034 | 66 | 244 | 5.0 | 13.0 | 0.00 | 0.00 | 0.00 | 77 | 1020.2 |
| 20260902084558 | 66 | 205 | 8.0 | 14.0 | 0.00 | 0.00 | 0.00 | 77 | 1020.1 |
| 20260902084034 | 66 | 222 | 7.0 | 14.0 | 0.00 | 0.00 | 0.00 | 77 | 1020.1 |
| 20260902083535 | 66 | 216 | 4.0 | 15.0 | 0.00 | 0.00 | 0.00 | 78 | 1020.1 |
| 20260902083057 | 66 | 244 | 7.0 | 15.0 | 0.00 | 0.00 | 0.00 | 78 | 1020.1 |
| 20260902082534 | 66 | 227 | 5.0 | 12.0 | 0.00 | 0.00 | 0.00 | 78 | 1020.2 |
| 20260902082034 | 66 | 202 | 5.0 | 11.0 | 0.00 | 0.00 | 0.00 | 78 | 1020.0 |
| 20260902081602 | 66 | 202 | 5.0 | 14.0 | 0.00 | 0.00 | 0.00 | 79 | 1020.0 |
| 20260902081033 | 66 | 220 | 5.0 | 14.0 | 0.00 | 0.00 | 0.00 | 79 | 1020.0 |
| 20260902080534 | 66 | 216 | 4.0 | 14.0 | 0.00 | 0.00 | 0.00 | 79 | 1020.0 |
| 20260902080056 | 66 | 222 | 6.0 | 11.0 | 0.00 | 0.00 | 0.00 | 80 | 1020.0 |
| 20260902075537 | 66 | 215 | 5.0 | 11.0 | 0.00 | 0.00 | 0.00 | 80 | 1020.0 |
| 20260902075037 | 65 | 213 | 4.0 | 12.0 | 0.00 | 0.00 | 0.00 | 81 | 1020.0 |
| 20260902074559 | 65 | 202 | 5.0 | 15.0 | 0.00 | 0.00 | 0.00 | 81 | 1019.9 |
| 20260902074038 | 65 | 229 | 6.0 | 15.0 | 0.00 | 0.00 | 0.00 | 81 | 1019.9 |
| 20260902073537 | 65 | 200 | 5.0 | 13.0 | 0.00 | 0.00 | 0.00 | 81 | 1019.8 |
| 20260902073056 | 65 | 197 | 5.0 | 13.0 | 0.00 | 0.00 | 0.00 | 80 | 1019.7 |
| 20260902072540 | 65 | 209 | 5.0 | 13.0 | 0.00 | 0.00 | 0.00 | 81 | 1019.6 |
| 20260902072037 | 65 | 225 | 6.0 | 12.0 | 0.00 | 0.00 | 0.00 | 81 | 1019.8 |
| 20260902071559 | 65 | 234 | 4.0 | 12.0 | 0.00 | 0.00 | 0.00 | 82 | 1019.9 |
| 20260902071038 | 65 | 211 | 4.0 | 10.0 | 0.00 | 0.00 | 0.00 | 83 | 1019.9 |
| 20260902070538 | 65 | 225 | 4.0 | 10.0 | 0.00 | 0.00 | 0.00 | 83 | 1019.7 |
| 20260902065537 | 64 | 231 | 1.0 | 6.0 | 0.00 | 0.00 | 0.00 | 85 | 1019.6 |
| 20260902065038 | 64 | 0 | 2.0 | 7.0 | 0.00 | 0.00 | 0.00 | 85 | 1019.5 |
| 20260902064557 | 64 | 0 | 3.0 | 8.0 | 0.00 | 0.00 | 0.00 | 86 | 1019.4 |
| 20260902064037 | 63 | 217 | 2.0 | 8.0 | 0.00 | 0.00 | 0.00 | 86 | 1019.7 |
| 20260902063537 | 63 | 232 | 0.0 | 2.0 | 0.00 | 0.00 | 0.00 | 86 | 1019.8 |
| 20260902063058 | 63 | 0 | 0.0 | 0.0 | 0.00 | 0.00 | 0.00 | 86 | 1019.7 |
| 20260902062541 | 63 | 0 | 0.0 | 0.0 | 0.00 | 0.00 | 0.00 | 86 | 1019.6 |
| 20260902062038 | 63 | 0 | 0.0 | 0.0 | 0.00 | 0.00 | 0.00 | 86 | 1019.6 |
| 20260902061038 | 62 | 0 | 0.0 | 0.0 | 0.00 | 0.00 | 0.00 | 86 | 1019.6 |
| 20260902060537 | 62 | 0 | 0.0 | 1.0 | 0.00 | 0.00 | 0.00 | 86 | 1019.6 |
| 20260902060107 | 62 | 0 | 0.0 | 2.0 | 0.00 | 0.00 | 0.00 | 86 | 1019.6 |
| 20260902055538 | 62 | 232 | 0.0 | 3.0 | 0.00 | 0.00 | 0.00 | 86 | 1019.6 |
| 20260902055038 | 62 | 0 | 0.0 | 4.0 | 0.00 | 0.00 | 0.00 | 87 | 1019.7 |
| 20260902054611 | 62 | 0 | 0.0 | 4.0 | 0.00 | 0.00 | 0.00 | 87 | 1019.6 |
| 20260902054037 | 62 | 261 | 0.0 | 4.0 | 0.00 | 0.00 | 0.00 | 87 | 1019.6 |
| 20260902053537 | 61 | 0 | 0.0 | 3.0 | 0.00 | 0.00 | 0.00 | 87 | 1019.6 |
| 20260902053104 | 61 | 0 | 0.0 | 1.0 | 0.00 | 0.00 | 0.00 | 87 | 1019.6 |
| 20260902052537 | 61 | 0 | 0.0 | 0.0 | 0.00 | 0.00 | 0.00 | 87 | 1019.5 |
| 20260902052037 | 61 | 0 | 0.0 | 0.0 | 0.00 | 0.00 | 0.00 | 87 | 1019.6 |
| 20260902051601 | 61 | 0 | 0.0 | 0.0 | 0.00 | 0.00 | 0.00 | 87 | 1019.7 |
| 20260902051037 | 61 | 0 | 0.0 | 0.0 | 0.00 | 0.00 | 0.00 | 87 | 1019.7 |
| 20260902050538 | 61 | 0 | 0.0 | 0.0 | 0.00 | 0.00 | 0.00 | 87 | 1019.7 |
| 20260902050059 | 61 | 0 | 0.0 | 1.0 | 0.00 | 0.00 | 0.00 | 87 | 1019.7 |
| 20260902045537 | 61 | 0 | 0.0 | 1.0 | 0.00 | 0.00 | 0.00 | 87 | 1019.6 |
| 20260902045037 | 61 | 0 | 0.0 | 1.0 | 0.00 | 0.00 | 0.00 | 87 | 1019.6 |
| 20260902044558 | 61 | 0 | 0.0 | 0.0 | 0.00 | 0.00 | 0.00 | 86 | 1019.6 |
| 20260902044038 | 61 | 0 | 0.0 | 0.0 | 0.00 | 0.00 | 0.00 | 86 | 1019.7 |
| 20260902043537 | 61 | 0 | 0.0 | 2.0 | 0.00 | 0.00 | 0.00 | 86 | 1019.8 |
| 20260902043108 | 61 | 0 | 0.0 | 2.0 | 0.00 | 0.00 | 0.00 | 86 | 1019.8 |
| 20260902042538 | 61 | 0 | 0.0 | 2.0 | 0.00 | 0.00 | 0.00 | 86 | 1019.7 |
| 20260902042037 | 61 | 0 | 0.0 | 1.0 | 0.00 | 0.00 | 0.00 | 86 | 1019.8 |
| 20260902041601 | 61 | 0 | 0.0 | 3.0 | 0.00 | 0.00 | 0.00 | 86 | 1019.8 |
| 20260902041033 | 61 | 0 | 0.0 | 3.0 | 0.00 | 0.00 | 0.00 | 86 | 1019.8 |
| 20260902040534 | 61 | 0 | 0.0 | 3.0 | 0.00 | 0.00 | 0.00 | 86 | 1019.8 |
| 20260902040103 | 61 | 0 | 0.0 | 1.0 | 0.00 | 0.00 | 0.00 | 86 | 1019.8 |
| 20260902035535 | 61 | 0 | 0.0 | 1.0 | 0.00 | 0.00 | 0.00 | 86 | 1019.8 |
| 20260902035034 | 61 | 0 | 0.0 | 1.0 | 0.00 | 0.00 | 0.00 | 85 | 1019.9 |
| 20260902034601 | 61 | 0 | 0.0 | 1.0 | 0.00 | 0.00 | 0.00 | 85 | 1019.9 |
| 20260902034036 | 61 | 0 | 0.0 | 0.0 | 0.00 | 0.00 | 0.00 | 85 | 1019.9 |
| 20260902033534 | 61 | 0 | 0.0 | 0.0 | 0.00 | 0.00 | 0.00 | 85 | 1020.0 |
| 20260902033051 | 61 | 0 | 0.0 | 0.0 | 0.00 | 0.00 | 0.00 | 85 | 1020.1 |
| 20260902032534 | 61 | 0 | 0.0 | 0.0 | 0.00 | 0.00 | 0.00 | 85 | 1020.1 |
| 20260902032034 | 61 | 0 | 0.0 | 0.0 | 0.00 | 0.00 | 0.00 | 85 | 1020.2 |
| 20260902031601 | 61 | 0 | 0.0 | 1.0 | 0.00 | 0.00 | 0.00 | 85 | 1020.1 |
| 20260902031034 | 61 | 0 | 0.0 | 1.0 | 0.00 | 0.00 | 0.00 | 85 | 1020.2 |
| 20260902030534 | 61 | 0 | 0.0 | 0.0 | 0.00 | 0.00 | 0.00 | 85 | 1020.3 |
| 20260902030058 | 61 | 0 | 0.0 | 2.0 | 0.00 | 0.00 | 0.00 | 85 | 1020.3 |
| 20260902025534 | 61 | 0 | 0.0 | 2.0 | 0.00 | 0.00 | 0.00 | 85 | 1020.3 |
| 20260902025035 | 61 | 0 | 0.0 | 2.0 | 0.00 | 0.00 | 0.00 | 84 | 1020.2 |
| 20260902024558 | 62 | 0 | 0.0 | 2.0 | 0.00 | 0.00 | 0.00 | 85 | 1020.1 |
| 20260902024035 | 62 | 249 | 0.0 | 4.0 | 0.00 | 0.00 | 0.00 | 85 | 1020.1 |
| 20260902023534 | 62 | 0 | 0.0 | 4.0 | 0.00 | 0.00 | 0.00 | 86 | 1020.1 |
| 20260902023111 | 62 | 246 | 1.0 | 4.0 | 0.00 | 0.00 | 0.00 | 86 | 1020.4 |
| 20260902022534 | 61 | 268 | 0.0 | 1.0 | 0.00 | 0.00 | 0.00 | 86 | 1020.6 |
| 20260902022034 | 61 | 0 | 0.0 | 0.0 | 0.00 | 0.00 | 0.00 | 86 | 1020.6 |
| 20260902021601 | 61 | 0 | 0.0 | 0.0 | 0.00 | 0.00 | 0.00 | 86 | 1020.6 |
| 20260902021034 | 61 | 0 | 0.0 | 0.0 | 0.00 | 0.00 | 0.00 | 86 | 1020.6 |
| 20260902020534 | 61 | 0 | 0.0 | 0.0 | 0.00 | 0.00 | 0.00 | 85 | 1020.6 |
| 20260902020101 | 61 | 0 | 0.0 | 0.0 | 0.00 | 0.00 | 0.00 | 85 | 1020.7 |
| 20260902015536 | 61 | 0 | 0.0 | 0.0 | 0.00 | 0.00 | 0.00 | 85 | 1020.6 |
| 20260902015034 | 61 | 0 | 0.0 | 0.0 | 0.00 | 0.00 | 0.00 | 85 | 1020.6 |
| 20260902014553 | 61 | 0 | 0.0 | 0.0 | 0.00 | 0.00 | 0.00 | 85 | 1020.5 |
| 20260902014036 | 61 | 0 | 0.0 | 0.0 | 0.00 | 0.00 | 0.00 | 85 | 1020.6 |
| 20260902013535 | 61 | 0 | 0.0 | 0.0 | 0.00 | 0.00 | 0.00 | 85 | 1020.6 |
| 20260902013107 | 61 | 0 | 0.0 | 0.0 | 0.00 | 0.00 | 0.00 | 85 | 1020.5 |
| 20260902012534 | 61 | 0 | 0.0 | 0.0 | 0.00 | 0.00 | 0.00 | 85 | 1020.5 |
| 20260902012034 | 61 | 0 | 0.0 | 0.0 | 0.00 | 0.00 | 0.00 | 85 | 1020.6 |
| 20260902011558 | 61 | 0 | 0.0 | 0.0 | 0.00 | 0.00 | 0.00 | 85 | 1020.7 |
| 20260902011034 | 61 | 0 | 0.0 | 0.0 | 0.00 | 0.00 | 0.00 | 85 | 1020.8 |
| 20260902010533 | 61 | 0 | 0.0 | 0.0 | 0.00 | 0.00 | 0.00 | 85 | 1020.8 |
| 20260902010055 | 61 | 0 | 0.0 | 0.0 | 0.00 | 0.00 | 0.00 | 85 | 1020.8 |
| 20260902005536 | 61 | 0 | 0.0 | 0.0 | 0.00 | 0.00 | 0.00 | 85 | 1021.0 |
| 20260902005038 | 61 | 0 | 0.0 | 0.0 | 0.00 | 0.00 | 0.00 | 85 | 1021.0 |
| 20260902004606 | 61 | 0 | 0.0 | 0.0 | 0.00 | 0.00 | 0.00 | 85 | 1021.1 |
| 20260902004037 | 61 | 0 | 0.0 | 0.0 | 0.00 | 0.00 | 0.00 | 85 | 1021.1 |
| 20260902003537 | 61 | 0 | 0.0 | 0.0 | 0.00 | 0.00 | 0.00 | 85 | 1021.1 |
| 20260902003108 | 61 | 0 | 0.0 | 0.0 | 0.00 | 0.00 | 0.00 | 84 | 1021.1 |
| 20260902002537 | 61 | 0 | 0.0 | 0.0 | 0.00 | 0.00 | 0.00 | 84 | 1021.2 |
| 20260902002039 | 61 | 0 | 0.0 | 0.0 | 0.00 | 0.00 | 0.00 | 84 | 1021.3 |
| 20260902001621 | 61 | 0 | 0.0 | 0.0 | 0.00 | 0.00 | 0.00 | 84 | 1021.3 |